Regional Weather Roundup
Issued by NWS Boston, MA

Home | Current Version | Previous Version | Text Only | Print | Product List | Glossary On
Versions: 1 2 3 4 5 6 7 8 9 10 11 12 13 14 15 16 17 18 19 20 21 22 23 24 25 26 27 28 29 30 31 32 33 34 35 36 37 38 39 40 41 42 43 44 45 46 47 48 49 50
000
ASUS41 KBOX 311410
RWRBOX

REGIONAL WEATHER ROUNDUP
NATIONAL WEATHER SERVICE TAUNTON MA
1000 AM EDT MON AUG 31 2015

NOTE:  "FAIR" INDICATES FEW OR NO CLOUDS BELOW 12,000 FEET WITH NO
SIGNIFICANT WEATHER AND/OR OBSTRUCTIONS TO VISIBILITY.  THE FOLLOWING
OBSERVATION LOCATIONS DO NOT REPORT PRESENT WEATHER...PROVINCETOWN...
SMITHFIELD...BLOCK ISLAND...KEENE...AND OXFORD.

MAZALL-311500-
EASTERN MASSACHUSETTS

CITY           SKY/WX    TMP DP  RH WIND       PRES   REMARKS
BOSTON         MOSUNNY   81  64  56 W10       29.97S
BEVERLY        SUNNY     79  64  60 W10       29.96S
LAWRENCE       SUNNY     80  63  55 W8        29.98F
BEDFORD        MOSUNNY   80  63  55 W9        29.96F
BLUE HILL        N/A     79  65  62 W10       29.99S
NORWOOD        MOSUNNY   82  67  60 W10       29.97F
MARSHFIELD     MOSUNNY   81  70  69 W5        29.98S
PLYMOUTH       MOSUNNY   79  70  74 SW5       29.99S
TAUNTON        MOSUNNY   81  69  67 W5        29.98S
NEW BEDFORD    PTSUNNY   80  69  69 W5        29.98S
$$

MAZALL-311500-
CAPE COD AND THE ISLANDS

CITY           SKY/WX    TMP DP  RH WIND       PRES   REMARKS
FALMOUTH       PTSUNNY   81  72  74 W8        29.99S
HYANNIS        PTSUNNY   82  70  66 W7        29.97S
CHATHAM        CLOUDY    79  72  79 SW9       29.98F
PROVINCETOWN     N/A     77  66  69 W8        29.97S
NANTUCKET      PTSUNNY   77  70  79 W16       29.99S
MARTHAS VNYRD  PTSUNNY   79  70  74 W8        29.99S
$$

MAZALL-311500-
CENTRAL AND WESTERN MASSACHUSETTS

CITY           SKY/WX    TMP DP  RH WIND       PRES   REMARKS
WORCESTER      MOSUNNY   76  63  64 W8        30.02S
FITCHBURG      SUNNY     81  63  54 NW10      29.99S
ORANGE         SUNNY     69  66  90 S3        30.01S
SPRINGFIELD    MOSUNNY   78  65  64 W6        29.99F
WESTFIELD      MOSUNNY   78  66  66 CALM      30.00F
NORTH ADAMS    MOSUNNY   71  65  81 CALM      30.02F
PITTSFIELD     SUNNY     75  64  68 W10       30.03S
$$

RIZALL-311500-
RHODE ISLAND

CITY           SKY/WX    TMP DP  RH WIND       PRES   REMARKS
PROVIDENCE     PTSUNNY   81  68  64 W7        29.99S
NEWPORT        PTSUNNY   80  70  71 W3        29.99S
BLOCK ISLAND   PTSUNNY   77  72  83 W10       30.02R
SMITHFIELD     MOSUNNY   79  66  65 NW7       30.00S
WESTERLY       PTSUNNY   80  71  74 SW9       30.00F
$$

CTZALL-311500-
CONNECTICUT

CITY           SKY/WX    TMP DP  RH WIND       PRES   REMARKS
BRADLEY INTL   PTSUNNY   76  69  79 S3        30.00S
HARTFORD       PTSUNNY   79  68  69 W6        30.00S
BRIDGEPORT     PTSUNNY   81  67  62 W10       30.01S
DANBURY        CLOUDY    77  66  68 SW3       30.05S
GROTON         PTSUNNY   81  72  74 W8        30.00S
NEW HAVEN      PTSUNNY   78  68  71 VRB3      30.01F
CHESTER        NOT AVBL
MERIDEN        PTSUNNY   82  66  58 NW6       30.01S
WILLIMANTIC    PTSUNNY   75  69  81 CALM      30.01S
OXFORD         PTSUNNY   75  64  69 NW5       30.06R
$$

MEZ002-015-021-024-NHZ003-005-008-011-012-014-VTZ005-008-311500-
NORTHERN NEW ENGLAND

CITY           SKY/WX    TMP DP  RH WIND       PRES   REMARKS
PORTLAND ME    SUNNY     77  64  64 W9        29.92F
BANGOR ME      SUNNY     75  62  64 SW9       29.87F
CONCORD NH     SUNNY     79  62  56 W8        29.96F
MANCHESTER NH  MOSUNNY   79  62  56 SW8       29.95F
NASHUA NH      SUNNY     80  63  55 NW10G16   29.97F
PORTSMOUTH NH  MOSUNNY   79  64  60 W8        29.94S
JAFFREY NH     SUNNY     76  63  64 SW8       30.02S
KEENE NH       SUNNY     72  63  73 CALM      30.01S
BURLINGTON VT  PTSUNNY   73  62  68 S12       29.94S
MT. WASHINGTON FOG       48  48 100 W61G67      N/A  VSB 0
$$

NYZ052-076-311500-
EASTERN NEW YORK

CITY           SKY/WX    TMP DP  RH WIND       PRES   REMARKS
ALBANY         MOSUNNY   75  66  73 SE3       30.01F
NEW YORK CITY  CLOUDY    80  67  64 CALM      30.03S
$$

ANZALL-311500-
MARINE OBSERVATIONS

STATION/POSITION TIME  TEMP    WIND        PRES    VSBY  WAVE
                       AIR SEA DIR/SP/G                  HT/PER
                 (UTC) (F)     (DEG/KT/KT) (MB)    (MI)  (FT/S)
BOSTON BUOY      1350   72 70  250/  6/  6 1015.0F         1/10
BUZZARDS BAY     1300          240/ 12/ 13 1016.3F
NANTUCKET SOUND  1350   73 75  240/ 12/ 14 1014.8F         1
MASS BAY-STELLWA 1304   71 69  240/  8/ 10   N/A    1 7/8  2/11
ISLE OF SHOALS   1300   73     290/ 14/ 15 1013.4F
S OF BLOCK IS    1308      74                N/A           4/ 6
$$

......................KEY.........................
  SKY/WX - SKY CONDITION/PRESENT WEATHER
  TMP    - TEMPERATURE IN FAHRENHEIT
  DWPT   - DEWPOINT IN FAHRENHEIT
  RH     - RELATIVE HUMIDITY IN PERCENT
  WIND   - DIRECTION AND SPEED IN MPH
  PRES   - MEAN SEA LEVEL PRESSURE IN INCHES OF HG
  WCI    - WIND CHILL INDEX
  VSB    - VISIBILITY IN MILES
  HX     - HEAT INDEX
  TC     - TEMPERATURE IN CELSIUS
  VRB    - VARIABLE WIND DIRECTION
  N/A    - NOT AVAILABLE


USA.gov is the U.S. government's official web portal to all federal, state and local government web resources and services.